Hourly Data Report for August 13, 2020

SVARTEVAEG
NUNAVUT
Current Station Operator: ECCC - MSC

81°09'39.000" N
91°48'59.060" W
72.00 m
2403833
71872
NSG

Download Data

Hourly Data (August 2020)
Hourly Data Report for August 13, 2020
TIME Temp Definition
°C
Dew Point Definition
°C
Rel Hum Definition
%
Wind Dir Definition
10's deg

Wind Spd Definition
km/h
Visibility Definition
km
Stn Press Definition
kPa
Hmdx Definition


Wind Chill Definition


Weather Definition


00:00 -1.4 -1.6 99 35 14   99.11   -6 LegendNANA
01:00 -1.2 -1.8 96 34 23   99.15   -7 LegendNANA
02:00 -1.2 -2.0 94 34 16   99.24   -6 LegendNANA
03:00 -1.4 -2.2 94 35 18   99.26   -7 LegendNANA
04:00 -1.0 -2.2 92 34 16   99.32   -6 LegendNANA
05:00 -1.0 -2.1 92 34 18   99.36   -6 LegendNANA
06:00 -1.2 -2.2 93 33 10   99.41   -5 LegendNANA
07:00 -1.1 -2.1 93 35 15   99.44   -6 LegendNANA
08:00 -0.7 -2.0 91 34 14   99.46   -5 LegendNANA
09:00 0.2 -2.1 85 32 17   99.50     LegendNANA
10:00 -0.3 -2.0 88 35 15   99.56   -5 LegendNANA
11:00 -0.6 -2.3 88 36 18   99.63   -6 LegendNANA
12:00 -0.5 -2.2 89 35 16   99.67   -5 LegendNANA
13:00 0.1 -1.9 87 36 17   99.71     LegendNANA
14:00 -0.3 -1.8 89 36 18   99.79   -5 LegendNANA
15:00 -0.4 -2.0 89 36 16   99.85   -5 LegendNANA
16:00 -0.2 -1.7 90 36 14   99.90   -4 LegendNANA
17:00 -0.3 -1.7 90 36 20   99.95   -6 LegendNANA
18:00 -0.5 -1.5 93 35 21   99.99   -6 LegendNANA
19:00 -0.5 -1.5 93 36 13   100.02   -5 LegendNANA
20:00 -0.6 -1.6 93 36 16   100.06   -5 LegendNANA
21:00 -0.6 -1.5 94 35 15   100.10   -5 LegendNANA
22:00 -0.6 -1.6 93 35 13   100.14   -5 LegendNANA
23:00 -0.4 -1.6 92 34 9   100.16   -4 LegendNANA

Notes on Data Quality.

Legend

  • E = Estimated
  • M = Missing
  • NA = Not Available*
  • [empty] = Indicates an unobserved value
Date modified: